Weather Roundup
Issued by NWS Springfield, MO

Home | Current Version | Previous Version | Text Only | Print | Product List | Glossary On
Versions: 1 2 3 4 5 6 7 8 9 10 11 12 13 14 15 16 17 18 19 20 21 22 23 24 25 26 27 28 29 30 31 32 33 34 35 36 37 38 39 40 41 42 43 44 45 46 47 48 49 50
392
NZUS99 KSGF 070507
HRRSGF

HOURLY WEATHER
NATIONAL WEATHER SERVICE SPRINGFIELD MO
1100 PM CST SAT FEB 06 2016

......SGF CWA......

CITY           SKY/WX    TMP DP  RH WIND       PRES   REMARKS
SPRINGFIELD    PTCLDY    35  27  72 SW7       30.18F WCI  29
JOPLIN         CLEAR     37  27  67 SW7       30.21S WCI  32
WEST PLAINS    CLEAR     40  14  34 SW7       30.22F
ROLLA          CLEAR     35  26  69 S8        30.15F WCI  29
OSAGE BEACH    CLEAR     37  27  65 S8        30.17S WCI  31

......SURROUNDING SGF CWA......

CITY           SKY/WX    TMP DP  RH WIND       PRES   REMARKS
CHANUTE        CLOUDY    35  28  75 S10       30.16F WCI  27
PARSONS        CLOUDY    36  27  69 S3        30.20F
COFFEYVILLE    CLOUDY    37  28  70 S8        30.20F WCI  31
EMPORIA        PTCLDY    36  26  67 S14       30.09F WCI  27
GROVE OK       CLOUDY    36  30  80 CALM      30.24S
ROGERS AR      CLEAR     40  29  64 S10       30.22F WCI  33
SILOAM SPRINGS CLEAR     39  25  56 S8        30.23F WCI  34
HARRISON AR    CLEAR     42  23  46 SW3       30.23S
NEAR YELLVILLE CLEAR     39  18  41 CALM      30.23R

......KANSAS AND MISSOURI......

CITY           SKY/WX    TMP DP  RH WIND       PRES   REMARKS
KANSAS CTY INT PTCLDY    41  28  60 SW17      30.07F
DOWNTOWN KC    CLOUDY    45  27  49 SW14      30.09F
COLUMBIA       PTCLDY    36  27  69 SW9       30.14F WCI  29
SEDALIA        PTCLDY    39  28  64 S10       30.14F WCI  32
ST JOSEPH      CLOUDY    38  28  67 S9        30.06S WCI  31
ST LOUIS       CLEAR     44  26  49 SW9       30.16F
SPIRIT OF STL  CLEAR     31  27  85 CALM      30.16F
KIRKSVILLE     PTCLDY    38  28  67 SW9       30.07F WCI  31
WICHITA        PTCLDY    40  25  55 S12       30.13S WCI  33
TOPEKA         MOCLDY    42  26  53 SW10      30.08S
OLATHE         PTCLDY    37  26  64 SW12      30.09F WCI  29

......TENNESSEE......

CITY           SKY/WX    TMP DP  RH WIND       PRES   REMARKS
MEMPHIS        CLEAR     37  23  56 CALM      30.30F
NASHVILLE      CLEAR     34  24  67 CALM      30.28F

......ARKANSAS.......

CITY           SKY/WX    TMP DP  RH WIND       PRES   REMARKS
FAYETTEVILLE   CLEAR     31  25  78 S6        30.24F WCI  25
FT SMITH       CLEAR     40  23  50 CALM      30.27F
LITTLE ROCK    CLEAR     38  27  64 CALM      30.30F

......OKLAHOMA.......

CITY           SKY/WX    TMP DP  RH WIND       PRES   REMARKS
TULSA          CLOUDY    42  29  59 S6        30.22F
PONCA CITY     CLEAR     39  28  64 S8        30.18F WCI  33
MCALESTER      MOCLDY    38  30  73 SW5       30.29S WCI  34
OKLAHOMA CITY  CLEAR     33  26  75 S10       30.24F WCI  25

......IOWA............

CITY           SKY/WX    TMP DP  RH WIND       PRES   REMARKS
DES MOINES     CLOUDY    39  28  64 SW14      29.94F WCI  31
QUAD CITIES    PTCLDY    37  29  72 SW7       30.04F WCI  32

......ILLINOIS........

CITY           SKY/WX    TMP DP  RH WIND       PRES   REMARKS
QUINCY         PTCLDY    36  27  69 SW8       30.09F WCI  30
CHICAGO        PTCLDY    32  28  85 S6        30.05F WCI  26




USA.gov is the U.S. government's official web portal to all federal, state and local government web resources and services.